DMSP 5D-2 F13 DEB, 42297

Orbit data source: Space-Track

DMSP 5D-2 F13 DEB, 42297 is space debris in SSO originally from a launch on Fri, 24 Mar 1995 UTC launched from the Air Force Western Test Range (AFWTR). Debris objects in space refer to the collection of defunct objects orbiting the Earth. Examples of debris include non-operational satellites, rocket bodies, and fragments generated from explosions, collisions, or faulty payload assembly.

Loading next visibility...
Identifier
42297, 1995-015HP
Orbit
SSO
Country
Flag of USUS
Related business
Manufacturer
Unknown
Mission
Spacecraft
Bus & Motor
Unknown
Mass
Unknown
Launch date (UTC)
1995-03-24 (31 years ago)
Launch vehicle
Unknown
Launch site
Air Force Western Test Range (AFWTR)
Object type
Payload
Rocket body
Debris
Shape & HBR
Unknown shape, 0.1 m
Radar Cross Section
Small (<0.1 m²)

Expand to show TLE details & history
Last TLE update: 20 hours ago

TLE from 20 hours ago
0 DMSP 5D-2 F13 DEB
1 42297U 95015HP  26118.96996556  .00009604  00000-0  27258-2 0  9992
2 42297  98.8605 123.7196 0030224  89.6218 270.8435 14.45379573548730
Epoch: 2026-04-28T23:16Z
TLE epoch observation values (Epoch: 2026-04-28T23:16:45.024Z)
Latitude
-0.00004°
Longitude
-82.40564°
Altitude
743.472 km
Speed
7.483 km/s
True Right ascension
08h 14m 52s
True Declination
0° 00' 00"
Sunlit
Object was in daylight at epoch
Visualization orbit readout
Latitude
Unknown
Longitude
Unknown
Altitude
Unknown
Speed
Unknown
Apparent Right ascension
Unknown
Apparent Declination
Unknown
Sunlit
N/A
Visualization observer readout
Local Sidereal Time
02:43:57
Azimuth
Unknown
Elevation
Unknown
Doppler factor
Unknown
Orbital elements
Apogee altitude
759.419 km
Perigee altitude
716.404 km
Semi-major axis
7,116.049 km
Eccentricity
0.00302
Inclination
98.8605°
RAAN
123.7196°
Arg. of periapsis
89.6218°
True anomaly
270.49718°
Mean anomaly
270.8435°
Eccentric anomaly
270.67034°
Mean motion
3.61564 °/min
Orbital period
99.57 mins
BSTAR
0.0027258

Documentation

Showing up to 5 results
|